South St. Paul, MN

9:52 PM CST on November 11, 2019 (GMT -0600)
South Saint Paul Municipal-Fleming

Weather History for KSGS - October, 2019

Change the Weather History Date:

Wednesday, October 23, 2019

  Actual Average (WUND) Record (WUND)
Temperature  
Mean Temperature 39 °F -  
Max Temperature 45 °F - - (-1)
Min Temperature 33 °F - - (-1)
Degree Days  
Heating Degree Days 26    
Moisture  
Dew Point 32 °F    
Average Humidity 73    
Maximum Humidity 93    
Minimum Humidity 59    
Precipitation  
Precipitation 0.00 in - - ()
Sea Level Pressure  
Sea Level Pressure 29.89 in    
Wind  
Wind Speed 8 mph (WNW)    
Max Wind Speed 15 mph    
Max Gust Speed 21 mph    
Visibility 10 miles    
Events      
Averages and records for this station are not official NWS values.
T = Trace of Precipitation, MM = Missing Value Source: NWS Daily Summary

Daily Weather History Graph

Daily Weather History Graph

Search for Another Location

Airport or City:

Astronomy

Oct. 23, 2019 Rise Set
Actual Time 7:37 AM CDT 6:14 PM CDT
Civil Twilight 7:07 AM CDT 6:44 PM CDT
Nautical Twilight 6:33 AM CDT 7:18 PM CDT
Astronomical Twilight 5:59 AM CDT 7:52 PM CDT
Moon 1:38 AM CDT (10/23) 4:22 PM CDT (10/23)
Length of Visible Light 11h 36m
Length of Day
10h 36m
Waning Crescent, 26% of the Moon is Illuminated
Oct 23
Waning Crescent
Oct 27
New
Nov 4
First Quarter
Nov 12
Full
Nov 19
Last Quarter

Hourly Weather History & Observations

Time (CDT) Temp. Windchill Dew Point Humidity Pressure Visibility Wind Dir Wind Speed Gust Speed Precip Events Conditions
12:15 AM 42.8 °F 35.4 °F 32.0 °F 66% 29.70 in 10.0 mi West 15.0 mph 20.7 mph N/A   Scattered Clouds
12:35 AM 42.1 °F 34.9 °F 32.0 °F 67% 29.70 in 10.0 mi West 13.8 mph 17.3 mph N/A   Clear
12:36 AM 42.1 °F 34.5 °F 32.0 °F 67% 29.71 in 10.0 mi West 15.0 mph 19.6 mph N/A   Clear
12:55 AM 41.5 °F 35.9 °F 32.0 °F 69% 29.70 in 10.0 mi West 9.2 mph - N/A   Clear
1:15 AM 41.0 °F 35.2 °F 32.0 °F 70% 29.70 in 10.0 mi West 9.2 mph - N/A   Clear
1:35 AM 40.3 °F 34.9 °F 32.0 °F 72% 29.70 in 10.0 mi West 8.1 mph - N/A   Clear
1:55 AM 39.6 °F 37.4 °F 32.0 °F 74% 29.71 in 10.0 mi West 3.5 mph - N/A   Clear
1:56 AM 39.6 °F 36.3 °F 32.0 °F 74% 29.71 in 10.0 mi West 4.6 mph - N/A   Clear
2:15 AM 38.7 °F 35.2 °F 32.0 °F 77% 29.72 in 10.0 mi WSW 4.6 mph - N/A   Clear
2:35 AM 37.8 °F 34.2 °F 32.0 °F 80% 29.72 in 10.0 mi West 4.6 mph - N/A   Clear
2:36 AM 37.8 °F 34.2 °F 32.0 °F 80% 29.72 in 10.0 mi West 4.6 mph - N/A   Clear
2:55 AM 37.4 °F 33.8 °F 32.0 °F 81% 29.73 in 10.0 mi WSW 4.6 mph - N/A   Clear
2:56 AM 37.4 °F 33.8 °F 32.0 °F 81% 29.73 in 10.0 mi WSW 4.6 mph - N/A   Clear
3:15 AM 37.4 °F 34.9 °F 32.0 °F 81% 29.74 in 10.0 mi WSW 3.5 mph - N/A   Clear
3:16 AM 37.4 °F 34.9 °F 32.0 °F 81% 29.74 in 10.0 mi WSW 3.5 mph - N/A   Clear
3:35 AM 36.9 °F 32.2 °F 32.0 °F 83% 29.75 in 10.0 mi WSW 5.8 mph - N/A   Clear
3:36 AM 36.9 °F 32.2 °F 32.0 °F 83% 29.75 in 10.0 mi West 5.8 mph - N/A   Clear
3:55 AM 36.5 °F 31.8 °F 32.0 °F 84% 29.75 in 10.0 mi West 5.8 mph - N/A   Clear
3:56 AM 36.5 °F 31.8 °F 32.0 °F 84% 29.75 in 10.0 mi West 5.8 mph - N/A   Clear
4:15 AM 36.5 °F 31.0 °F 31.8 °F 83% 29.75 in 10.0 mi West 6.9 mph - N/A   Clear
4:16 AM 36.5 °F 31.0 °F 31.8 °F 83% 29.75 in 10.0 mi West 6.9 mph - N/A   Clear
4:35 AM 36.1 °F 30.6 °F 31.6 °F 84% 29.76 in 10.0 mi West 6.9 mph - N/A   Clear
4:55 AM 35.8 °F 30.1 °F 31.6 °F 85% 29.77 in 10.0 mi West 6.9 mph - N/A   Clear
4:56 AM 35.8 °F 30.1 °F 31.6 °F 85% 29.77 in 10.0 mi West 6.9 mph - N/A   Clear
5:15 AM 35.4 °F 29.7 °F 31.5 °F 85% 29.78 in 10.0 mi West 6.9 mph - N/A   Clear
5:16 AM 35.4 °F 29.7 °F 31.5 °F 85% 29.78 in 10.0 mi West 6.9 mph - N/A   Clear
5:35 AM 35.1 °F 31.0 °F 31.5 °F 87% 29.78 in 10.0 mi West 4.6 mph - N/A   Clear
5:36 AM 35.1 °F 30.1 °F 31.5 °F 87% 29.78 in 10.0 mi West 5.8 mph - N/A   Clear
5:55 AM 34.7 °F 30.6 °F 31.5 °F 88% 29.79 in 10.0 mi WSW 4.6 mph - N/A   Clear
6:15 AM 34.3 °F 30.2 °F 31.6 °F 90% 29.80 in 10.0 mi West 4.6 mph - N/A   Clear
6:16 AM 34.3 °F 30.2 °F 31.6 °F 90% 29.80 in 10.0 mi West 4.6 mph - N/A   Clear
6:35 AM 34.0 °F 29.8 °F 31.5 °F 90% 29.79 in 10.0 mi West 4.6 mph - N/A   Clear
6:36 AM 34.0 °F 29.8 °F 31.6 °F 91% 29.79 in 10.0 mi West 4.6 mph - N/A   Clear
6:55 AM 33.8 °F 29.6 °F 31.6 °F 92% 29.80 in 10.0 mi West 4.6 mph - N/A   Clear
7:15 AM 33.8 °F 28.6 °F 31.8 °F 92% 29.80 in 10.0 mi West 5.8 mph - N/A   Clear
7:16 AM 33.8 °F 28.6 °F 31.8 °F 92% 29.80 in 10.0 mi West 5.8 mph - N/A   Clear
7:35 AM 33.8 °F 28.6 °F 31.8 °F 92% 29.81 in 10.0 mi West 5.8 mph - N/A   Clear
7:55 AM 33.6 °F 27.5 °F 31.8 °F 93% 29.82 in 10.0 mi West 6.9 mph - N/A   Clear
7:56 AM 33.8 °F 27.7 °F 31.8 °F 92% 29.82 in 10.0 mi West 6.9 mph - N/A   Clear
8:15 AM 34.0 °F 28.8 °F 32.0 °F 92% 29.83 in 10.0 mi West 5.8 mph - N/A   Clear
8:16 AM 34.0 °F 28.8 °F 32.0 °F 92% 29.83 in 10.0 mi West 5.8 mph - N/A   Clear
8:35 AM 34.7 °F 28.1 °F 32.0 °F 90% 29.84 in 10.0 mi West 8.1 mph - N/A   Clear
8:55 AM 34.9 °F 29.0 °F 31.8 °F 89% 29.85 in 10.0 mi West 6.9 mph - N/A   Clear
8:56 AM 34.9 °F 29.0 °F 31.8 °F 89% 29.85 in 10.0 mi West 6.9 mph - N/A   Clear
9:15 AM 36.5 °F 31.8 °F 32.0 °F 84% 29.85 in 10.0 mi West 5.8 mph - N/A   Clear
9:35 AM 37.4 °F 33.8 °F 32.0 °F 81% 29.85 in 10.0 mi West 4.6 mph - N/A   Clear
9:36 AM 37.4 °F 32.8 °F 32.0 °F 81% 29.86 in 10.0 mi West 5.8 mph - N/A   Clear
9:55 AM 38.5 °F 34.1 °F 32.0 °F 78% 29.86 in 10.0 mi West 5.8 mph - N/A   Clear
9:56 AM 38.5 °F 35.0 °F 32.0 °F 78% 29.86 in 10.0 mi WNW 4.6 mph - N/A   Clear
10:35 AM 39.9 °F 35.8 °F 32.0 °F 73% 29.88 in 10.0 mi WNW 5.8 mph - N/A   Scattered Clouds
10:36 AM 39.9 °F 35.8 °F 32.0 °F 73% 29.88 in 10.0 mi WNW 5.8 mph - N/A   Scattered Clouds
10:55 AM 41.0 °F 39.0 °F 32.2 °F 71% 29.88 in 10.0 mi WNW 3.5 mph - N/A   Scattered Clouds
11:15 AM 40.5 °F 38.4 °F 32.0 °F 72% 29.88 in 10.0 mi WSW 3.5 mph - N/A   Clear
11:16 AM 40.6 °F 38.6 °F 32.2 °F 72% 29.88 in 10.0 mi West 3.5 mph - N/A   Clear
11:35 AM 43.2 °F 39.7 °F 32.7 °F 67% 29.88 in 10.0 mi NW 5.8 mph - N/A   Clear
11:55 AM 44.1 °F 40.1 °F 32.9 °F 65% 29.88 in 10.0 mi West 6.9 mph - N/A   Clear
11:56 AM 44.1 °F 40.1 °F 32.9 °F 65% 29.88 in 10.0 mi West 6.9 mph - N/A   Clear
12:15 PM 43.5 °F 39.4 °F 32.4 °F 65% 29.88 in 10.0 mi West 6.9 mph - N/A   Clear
12:35 PM 43.7 °F 40.3 °F 32.4 °F 64% 29.88 in 10.0 mi WNW 5.8 mph - N/A   Clear
12:36 PM 43.9 °F 42.3 °F 32.5 °F 64% 29.88 in 10.0 mi WNW 3.5 mph - N/A   Clear
12:55 PM 45.3 °F 42.3 °F 32.5 °F 61% 29.88 in 10.0 mi NNW 5.8 mph - N/A   Clear
1:15 PM 45.7 °F 41.5 °F 32.7 °F 61% 29.89 in 10.0 mi NW 8.1 mph - N/A   Clear
1:35 PM 45.7 °F 41.0 °F 32.0 °F 59% 29.89 in 10.0 mi NW 9.2 mph - N/A   Clear
1:36 PM 45.7 °F 40.6 °F 32.0 °F 59% 29.89 in 10.0 mi NW 10.4 mph - N/A   Clear
1:55 PM 45.5 °F 42.5 °F 32.5 °F 61% 29.89 in 10.0 mi WNW 5.8 mph - N/A   Clear
2:15 PM 45.5 °F 41.8 °F 32.4 °F 60% 29.89 in 10.0 mi WNW 6.9 mph - N/A   Clear
2:16 PM 45.5 °F 42.5 °F 32.4 °F 60% 29.89 in 10.0 mi WNW 5.8 mph - N/A   Clear
2:35 PM 45.0 °F 41.2 °F 32.2 °F 61% 29.89 in 10.0 mi NW 6.9 mph - N/A   Clear
2:36 PM 45.0 °F 40.6 °F 32.4 °F 61% 29.89 in 10.0 mi WNW 8.1 mph - N/A   Clear
2:55 PM 45.1 °F 40.3 °F 32.7 °F 62% 29.90 in 10.0 mi North 9.2 mph - N/A   Clear
2:56 PM 45.1 °F 40.3 °F 32.7 °F 62% 29.90 in 10.0 mi North 9.2 mph - N/A   Clear
3:15 PM 44.1 °F 38.6 °F 33.1 °F 65% 29.91 in 10.0 mi NNW 10.4 mph - N/A   Clear
3:35 PM 43.9 °F 38.8 °F 32.4 °F 64% 29.92 in 10.0 mi NNW 9.2 mph - N/A   Clear
3:55 PM 43.2 °F 38.4 °F 32.0 °F 65% 29.93 in 10.0 mi NNW 8.1 mph - N/A   Clear
3:56 PM 43.0 °F 37.7 °F 32.0 °F 65% 29.93 in 10.0 mi NNW 9.2 mph - N/A   Clear
4:15 PM 43.2 °F 39.7 °F 32.2 °F 65% 29.95 in 10.0 mi North 5.8 mph - N/A   Scattered Clouds
4:35 PM 43.2 °F 39.0 °F 32.0 °F 65% 29.95 in 10.0 mi NNW 6.9 mph - N/A   Mostly Cloudy
4:55 PM 43.2 °F 39.7 °F 32.0 °F 65% 29.95 in 10.0 mi North 5.8 mph - N/A   Mostly Cloudy
5:15 PM 43.2 °F 39.7 °F 32.0 °F 65% 29.96 in 10.0 mi NNW 5.8 mph - N/A   Scattered Clouds
5:35 PM 43.7 °F 39.7 °F 32.0 °F 63% 29.97 in 10.0 mi NW 6.9 mph - N/A   Mostly Cloudy
5:55 PM 43.7 °F 41.1 °F 32.0 °F 63% 29.98 in 10.0 mi NW 4.6 mph - N/A   Overcast
6:15 PM 43.2 °F 40.5 °F 32.0 °F 65% 29.99 in 10.0 mi NW 4.6 mph - N/A   Mostly Cloudy
6:16 PM 43.2 °F 40.5 °F 32.0 °F 65% 29.99 in 10.0 mi NNW 4.6 mph - N/A   Mostly Cloudy
6:35 PM 43.2 °F 40.5 °F 32.0 °F 65% 30.00 in 10.0 mi NW 4.6 mph - N/A   Overcast
6:55 PM 43.7 °F 38.6 °F 32.0 °F 63% 30.01 in 10.0 mi NNW 9.2 mph - N/A   Overcast
7:15 PM 43.3 °F 38.6 °F 31.1 °F 62% 30.02 in 10.0 mi NNW 8.1 mph - N/A   Mostly Cloudy
7:35 PM 43.2 °F 37.9 °F 31.1 °F 62% 30.03 in 10.0 mi NNW 9.2 mph - N/A   Clear
7:36 PM 43.2 °F 39.0 °F 31.1 °F 62% 30.03 in 10.0 mi NNW 6.9 mph - N/A   Clear
7:55 PM 42.8 °F 38.6 °F 30.7 °F 62% 30.04 in 10.0 mi NNW 6.9 mph - N/A   Clear
8:15 PM 42.3 °F 36.8 °F 30.7 °F 64% 30.05 in 10.0 mi NW 9.2 mph - N/A   Clear
8:16 PM 42.3 °F 36.8 °F 30.9 °F 64% 30.05 in 10.0 mi NW 9.2 mph - N/A   Clear
8:35 PM 41.7 °F 37.3 °F 31.1 °F 66% 30.06 in 10.0 mi NW 6.9 mph - N/A   Clear
8:55 PM 41.5 °F 35.4 °F 30.9 °F 66% 30.07 in 10.0 mi NW 10.4 mph - N/A   Clear
9:15 PM 41.2 °F 35.0 °F 31.1 °F 67% 30.08 in 10.0 mi NW 10.4 mph - N/A   Scattered Clouds
9:16 PM 41.2 °F 35.0 °F 31.1 °F 67% 30.08 in 10.0 mi NNW 10.4 mph - N/A   Scattered Clouds
9:35 PM 40.5 °F 36.5 °F 31.1 °F 69% 30.09 in 10.0 mi NW 5.8 mph - N/A   Clear
9:36 PM 40.5 °F 35.8 °F 31.1 °F 69% 30.09 in 10.0 mi NW 6.9 mph - N/A   Clear
9:55 PM 40.5 °F 35.1 °F 31.1 °F 69% 30.09 in 10.0 mi NW 8.1 mph - N/A   Clear
10:15 PM 40.5 °F 35.8 °F 31.1 °F 69% 30.10 in 10.0 mi NW 6.9 mph - N/A   Clear
10:35 PM 40.6 °F 34.3 °F 31.1 °F 69% 30.11 in 10.0 mi WNW 10.4 mph - N/A   Mostly Cloudy
10:36 PM 40.6 °F 34.8 °F 30.9 °F 68% 30.11 in 10.0 mi NW 9.2 mph - N/A   Mostly Cloudy
10:55 PM 41.0 °F 35.8 °F 30.9 °F 67% 30.12 in 10.0 mi NW 8.1 mph - N/A   Overcast
10:56 PM 41.0 °F 35.8 °F 31.1 °F 68% 30.12 in 10.0 mi NW 8.1 mph - N/A   Overcast
11:15 PM 41.0 °F 36.4 °F 30.7 °F 67% 30.12 in 10.0 mi NW 6.9 mph - N/A   Overcast
11:35 PM 41.0 °F 37.1 °F 30.9 °F 67% 30.13 in 10.0 mi WNW 5.8 mph - N/A   Overcast
11:36 PM 41.0 °F 36.4 °F 30.9 °F 67% 30.13 in 10.0 mi WNW 6.9 mph - N/A   Overcast
11:55 PM 41.0 °F 36.4 °F 31.3 °F 68% 30.14 in 10.0 mi WNW 6.9 mph - N/A   Overcast